GW7146 Weather Reports


time (UTC)temp
C
wind
direction
speed
KPH
gust
KPH
rain 1hr
cm
rain 24hr
cm
rain mn
cm
humidity
%
barometer
mb
20260507203018 16 247 8.0 20.9 0.00 3.07 3.07 86 998.3
20260507202508 16 276 9.7 20.9 0.00 3.07 3.07 86 998.2
20260507202010 16 286 4.8 19.3 0.00 3.07 3.07 86 998.3
20260507201526 16 257 8.0 19.3 0.00 3.07 3.07 85 998.3
20260507201010 16 261 12.9 19.3 0.00 3.07 3.07 85 998.4
20260507200510 16 259 8.0 22.5 0.00 3.07 3.07 85 998.3
20260507200025 16 266 8.0 29.0 0.00 3.07 3.07 85 998.7
20260507195503 16 267 12.9 29.0 0.00 3.07 3.07 85 998.8
20260507195003 16 251 14.5 24.1 0.00 3.07 3.07 85 998.6
20260507194510 16 249 9.7 22.5 0.00 3.07 3.07 85 998.5
20260507194007 16 278 12.9 32.2 0.00 3.07 3.07 84 998.7
20260507193507 16 243 19.3 32.2 0.00 3.07 3.07 84 998.8
20260507193016 16 270 12.9 24.1 0.00 3.07 3.07 84 998.8
20260507192509 16 245 11.3 22.5 0.00 3.07 3.07 85 998.7
20260507192008 16 270 9.7 22.5 0.00 3.07 3.07 85 998.4
20260507191520 16 284 9.7 27.4 0.00 3.07 3.07 86 998.7
20260507191011 16 272 9.7 27.4 0.00 3.07 3.07 86 999.0
20260507190510 16 253 11.3 25.7 0.00 3.07 3.07 85 999.0
20260507190023 16 250 12.9 33.8 0.00 3.07 3.07 86 998.8
20260507185510 16 249 17.7 33.8 0.00 3.07 3.07 85 998.9
20260507185009 17 265 22.5 30.6 0.00 3.07 3.07 85 998.9
20260507184512 17 244 8.0 16.1 0.00 3.07 3.07 86 998.9
20260507184005 17 251 8.0 22.5 0.00 3.07 3.07 87 998.8
20260507183504 17 262 11.3 22.5 0.00 3.07 3.07 87 998.8
20260507183012 17 231 11.3 22.5 0.00 3.07 3.07 88 998.6
20260507182508 17 267 12.9 20.9 0.00 3.07 3.07 89 998.5
20260507182008 17 258 6.4 16.1 0.00 3.07 3.07 89 998.2
20260507181516 17 258 8.0 16.1 0.00 3.07 3.07 89 997.9
20260507181006 17 270 4.8 12.9 0.00 3.07 3.07 89 997.3
20260507180511 17 296 8.0 12.9 0.00 3.07 3.07 89 996.9
20260507180022 17 337 3.2 12.9 0.00 3.07 3.07 89 996.8
20260507175509 17 9 4.8 14.5 0.00 3.07 3.07 89 997.2
20260507175008 16 336 8.0 14.5 0.00 3.07 3.07 89 997.6
20260507174526 16 322 4.8 12.9 0.00 3.07 3.07 90 997.9
20260507174009 16 332 6.4 17.7 0.00 3.07 3.07 90 997.9
20260507173510 16 339 9.7 17.7 0.00 3.07 3.07 90 997.2
20260507173010 16 2 8.0 16.1 0.00 3.07 3.07 90 997.4
20260507172507 16 3 8.0 17.7 0.00 3.07 3.07 90 997.4
20260507172006 16 347 8.0 17.7 0.00 3.07 3.07 89 997.4
20260507171513 16 19 6.4 19.3 0.00 3.07 3.07 90 997.3
20260507171008 16 335 6.4 22.5 0.00 3.07 3.07 89 997.6
20260507170510 16 8 9.7 24.1 0.00 3.07 3.07 89 998.2
20260507170022 16 291 11.3 24.1 0.00 3.07 3.07 90 998.7
20260507165510 16 334 9.7 20.9 0.03 3.07 3.07 90 998.7
20260507165014 16 328 6.4 22.5 0.03 3.07 3.07 90 998.6
20260507164522 16 290 6.4 22.5 0.03 3.07 3.07 90 998.3
20260507164008 16 312 11.3 19.3 0.03 3.07 3.07 90 998.6
20260507163510 16 318 9.7 19.3 0.03 3.07 3.07 91 998.8
20260507163028 16 308 9.7 17.7 0.05 3.07 3.07 91 999.0
20260507162510 16 2 11.3 19.3 0.05 3.07 3.07 91 998.9
20260507162004 16 290 14.5 19.3 0.05 3.07 3.07 91 999.0
20260507161513 16 322 9.7 16.1 0.05 3.07 3.07 91 998.9
20260507161008 16 281 8.0 20.9 0.08 3.07 3.07 91 999.0
20260507160506 16 281 9.7 20.9 0.08 3.07 3.07 91 999.2
20260507160020 16 289 8.0 17.7 0.08 3.07 3.07 91 999.7
20260507155509 16 310 8.0 17.7 0.05 3.05 3.05 91 1000.0
20260507155011 16 266 4.8 20.9 0.05 3.05 3.05 92 1000.1
20260507154523 16 287 11.3 20.9 0.05 3.05 3.05 92 1000.2
20260507154010 16 313 3.2 17.7 0.05 3.05 3.05 92 1000.1
20260507153508 16 281 9.7 17.7 0.05 3.05 3.05 92 1000.0
20260507153031 16 299 6.4 16.1 0.03 3.02 3.02 93 1000.0
20260507152510 16 319 4.8 11.3 0.03 3.02 3.02 93 999.8
20260507152011 16 297 4.8 12.9 0.03 3.02 3.02 93 1000.2
20260507151526 16 287 6.4 16.1 0.03 3.02 3.02 93 1000.3
20260507151010 16 322 6.4 16.1 0.00 2.97 2.97 93 1000.7
20260507150508 16 301 8.0 14.5 0.00 2.97 2.97 93 1001.2
20260507150014 16 310 6.4 16.1 0.03 2.97 2.97 93 1001.0
20260507145510 16 318 6.4 16.1 0.05 2.97 2.97 93 1000.4
20260507145009 16 295 11.3 16.1 0.08 2.97 2.97 93 1000.8
20260507144522 16 321 8.0 16.1 0.15 2.97 2.97 93 1000.5
20260507144010 16 321 8.0 17.7 0.18 2.97 2.97 92 1000.4
20260507143507 16 326 9.7 17.7 0.20 2.97 2.97 92 1000.5
20260507143026 16 316 9.7 17.7 0.23 2.97 2.97 92 1000.8
20260507142508 16 317 6.4 16.1 0.25 2.97 2.97 92 1000.7
20260507142010 16 345 4.8 20.9 0.25 2.97 2.97 92 1000.2
20260507141527 16 319 3.2 20.9 0.25 2.97 2.97 92 1000.4
20260507141010 16 309 8.0 19.3 0.25 2.97 2.97 92 1000.8
20260507140512 16 288 6.4 16.1 0.25 2.97 2.97 92 1000.5
20260507140030 16 289 9.7 16.1 0.23 2.95 2.95 92 999.7
20260507135507 16 316 9.7 22.5 0.20 2.95 2.95 92 999.5
20260507135006 16 276 12.9 25.7 0.18 2.92 2.92 91 999.8
20260507134520 16 242 12.9 25.7 0.10 2.84 2.84 91 1000.7
20260507134006 16 305 8.0 27.4 0.08 2.82 2.82 91 1001.2
20260507133510 16 286 12.9 27.4 0.05 2.79 2.79 90 1001.4
20260507133003 16 299 9.7 22.5 0.03 2.77 2.77 90 1001.0
20260507132505 16 283 11.3 19.3 0.00 2.74 2.74 90 1001.0
20260507132005 16 278 8.0 19.3 0.00 2.74 2.74 90 1000.7
20260507131504 16 270 3.2 14.5 0.00 2.74 2.74 90 999.6
20260507131004 16 249 8.0 14.5 0.00 2.74 2.74 90 999.5
20260507130507 16 299 8.0 25.7 0.00 2.74 2.74 89 1000.1
20260507130011 16 254 11.3 24.1 0.00 2.74 2.74 89 1000.5
20260507125504 16 288 11.3 29.0 0.00 2.74 2.74 89 1001.2
20260507125006 16 273 6.4 32.2 0.00 2.74 2.74 89 1001.5
20260507124519 16 256 20.9 32.2 0.00 2.74 2.74 89 1002.1
20260507124012 16 270 6.4 14.5 0.00 2.74 2.74 90 1000.7
20260507123511 16 209 4.8 19.3 0.00 2.74 2.74 90 1000.0
20260507123025 16 249 8.0 22.5 0.00 2.74 2.74 90 1000.6
20260507122505 16 272 9.7 22.5 0.00 2.74 2.74 90 1000.0
20260507122005 16 231 12.9 22.5 0.00 2.74 2.74 90 999.3
20260507121504 16 291 8.0 17.7 0.00 2.74 2.74 91 998.8
20260507121005 16 297 8.0 19.3 0.00 2.74 2.74 90 998.1
20260507120505 16 302 8.0 19.3 0.00 2.74 2.74 91 998.2
20260507120011 16 308 6.4 16.1 0.00 2.74 2.74 91 998.3
20260507115506 16 6 6.4 16.1 0.00 2.74 2.74 91 997.3
20260507115008 16 35 4.8 12.9 0.03 2.74 2.74 91 996.8
20260507114512 16 357 4.8 14.5 0.03 2.74 2.74 91 996.7
20260507114008 16 329 4.8 16.1 0.03 2.74 2.74 91 996.9
20260507113506 16 304 6.4 16.1 0.03 2.74 2.74 91 997.1
20260507113020 16 16 8.0 14.5 0.03 2.74 2.74 91 997.3
20260507112507 16 353 8.0 24.1 0.03 2.74 2.74 90 997.6
20260507112010 16 344 8.0 24.1 0.03 2.74 2.74 90 997.4
20260507111506 16 356 6.4 17.7 0.03 2.74 2.74 90 997.3
20260507111002 16 1 8.0 17.7 0.05 2.74 2.74 90 996.9
20260507110502 16 345 6.4 12.9 0.05 2.74 2.74 91 996.1
20260507110012 16 32 1.6 12.9 0.05 2.74 2.74 91 996.0
20260507105503 16 12 4.8 17.7 0.10 2.74 2.74 91 995.9
20260507105004 16 27 6.4 17.7 0.10 2.72 2.72 91 996.5
20260507104520 16 333 8.0 19.3 0.13 2.72 2.72 91 996.4
20260507104008 16 1 11.3 19.3 0.15 2.72 2.72 91 996.2
20260507103507 16 20 9.7 16.1 0.15 2.72 2.72 91 996.0
20260507103022 16 8 8.0 16.1 0.15 2.72 2.72 91 995.7
20260507102509 16 48 3.2 14.5 0.15 2.72 2.72 92 995.4
20260507102008 16 337 6.4 12.9 0.15 2.72 2.72 92 995.5
20260507101536 16 3 6.4 12.9 0.15 2.72 2.72 92 995.8
20260507101008 16 41 4.8 11.3 0.13 2.67 2.67 92 996.0
20260507100510 16 85 3.2 11.3 0.15 2.67 2.67 92 996.4
20260507100005 16 31 4.8 11.3 0.15 2.67 2.67 92 998.5
20260507095505 16 330 1.6 6.4 0.10 2.64 2.64 91 998.5
20260507095008 16 14 3.2 6.4 0.10 2.62 2.62 91 998.4
20260507094508 16 29 1.6 4.8 0.08 2.59 2.59 91 998.5
20260507094003 16 341 3.2 4.8 0.08 2.57 2.57 91 999.4
20260507093507 17 359 1.6 9.7 0.10 2.57 2.57 90 999.1
20260507093020 17 335 4.8 9.7 0.13 2.57 2.57 90 999.6
20260507092509 17 322 1.6 9.7 0.13 2.57 2.57 90 998.6
20260507092009 17 247 3.2 14.5 0.15 2.57 2.57 89 998.0
20260507091536 17 101 3.2 14.5 0.15 2.57 2.57 89 996.1
20260507091007 17 125 6.4 14.5 0.18 2.57 2.57 88 996.8
20260507090511 17 122 6.4 16.1 0.18 2.54 2.54 88 998.1
20260507090022 17 200 6.4 16.1 0.23 2.54 2.54 88 998.6
20260507085508 17 153 6.4 16.1 0.25 2.54 2.54 88 998.7
20260507085005 17 215 4.8 19.3 0.25 2.51 2.51 88 999.1
20260507084508 17 257 9.7 19.3 0.28 2.51 2.51 88 999.0
20260507084004 17 206 8.0 22.5 0.28 2.49 2.49 87 999.7
20260507083507 18 252 11.3 20.9 0.28 2.46 2.46 87 1000.0
20260507083015 18 220 12.9 25.7 0.25 2.44 2.44 87 1000.1
20260507082506 18 220 11.3 32.2 0.25 2.44 2.44 87 1000.3
20260507082005 18 231 12.9 32.2 0.25 2.41 2.41 87 1000.7
20260507081540 18 243 12.9 30.6 0.25 2.41 2.41 87 1000.8
20260507081007 18 180 17.7 41.8 0.23 2.39 2.39 86 1000.7
20260507080024 18 241 19.3 37.0 0.15 2.31 2.31 84 1001.0
20260507075507 18 205 16.1 32.2 0.13 2.29 2.29 86 1001.1
20260507075014 18 261 11.3 29.0 0.10 2.26 2.26 88 1001.3
20260507074530 18 254 19.3 29.0 0.10 2.24 2.24 89 1001.4
20260507074007 18 248 9.7 20.9 0.10 2.21 2.21 92 1001.4
20260507073505 18 239 8.0 14.5 0.15 2.18 2.18 92 1001.2
20260507073010 18 289 6.4 14.5 0.28 2.18 2.18 92 1001.0
20260507072509 18 284 9.7 14.5 0.51 2.18 2.18 92 1001.1
20260507072007 18 274 6.4 14.5 0.71 2.16 2.16 92 1000.9
20260507071520 18 287 6.4 12.9 1.45 2.16 2.16 92 1000.7
20260507071006 18 278 6.4 17.7 1.73 2.16 2.16 92 1000.3
20260507070508 18 263 6.4 17.7 1.85 2.16 2.16 92 1000.2
20260507070017 18 283 9.7 24.1 2.08 2.16 2.16 92 1000.3
20260507065509 18 219 11.3 25.7 2.08 2.16 2.16 92 1000.4
20260507065007 18 236 14.5 25.7 2.08 2.16 2.16 92 1000.7
20260507064526 18 254 12.9 29.0 2.13 2.13 2.13 92 1000.8
20260507064011 18 265 12.9 43.5 2.11 2.11 2.11 92 1001.7
20260507063511 18 285 20.9 35.4 2.03 2.03 2.03 92 1002.3
20260507063027 18 278 16.1 43.5 1.91 1.91 1.91 92 1002.0
20260507062508 18 258 17.7 43.5 1.68 1.68 1.68 92 1001.9
20260507062007 18 273 17.7 37.0 1.45 1.45 1.45 92 1002.3
20260507061527 18 262 19.3 32.2 0.71 0.71 0.71 91 1002.5
20260507061006 18 269 3.2 19.3 0.43 0.43 0.43 90 1000.5
20260507060507 18 228 6.4 22.5 0.30 0.30 0.30 90 1000.4
20260507060026 18 249 9.7 24.1 0.08 0.08 0.08 89 1000.2
20260507055506 18 252 8.0 24.1 0.08 0.08 0.08 87 1000.2
20260507055006 19 189 11.3 24.1 0.08 0.08 0.08 84 1000.4
20260507054524 20 233 11.3 32.2 0.00 0.00 0.00 81 1000.7
20260507054007 20 202 11.3 41.8 0.00 0.00 0.00 80 1000.7
20260507053510 20 218 19.3 41.8 0.00 0.00 0.00 80 1000.8
20260507053026 20 218 20.9 38.6 0.00 0.00 0.00 80 1000.7
20260507052508 21 207 16.1 32.2 0.00 0.00 0.00 79 1001.0
20260507052008 22 224 17.7 33.8 0.00 0.00 0.00 76 1001.0
20260507051510 24 189 17.7 33.8 0.00 0.00 0.00 76 1000.4
20260507051009 24 320 11.3 24.1 0.00 0.00 0.00 79 999.3
20260507050506 24 2 12.9 24.1 0.00 0.00 0.00 79 999.1
20260507050028 24 308 11.3 24.1 0.00 0.00 0.00 79 999.1
20260507045506 24 316 11.3 27.4 0.00 0.00 0.00 79 999.1
20260507045006 24 300 14.5 27.4 0.00 0.00 0.00 78 999.1
20260507044534 24 320 9.7 20.9 0.00 0.00 0.00 78 999.1
20260507044014 24 314 9.7 20.9 0.00 0.00 0.00 78 998.9
20260507043509 24 4 9.7 20.9 0.00 0.00 0.00 79 998.8
20260507043022 24 320 11.3 17.7 0.00 0.00 0.00 79 999.2
20260507042516 24 335 8.0 14.5 0.00 0.00 0.00 79 999.5
20260507042008 24 326 8.0 12.9 0.00 0.00 0.00 79 999.5
20260507041528 24 335 6.4 19.3 0.00 0.00 0.00 79 999.6
20260507041008 24 321 4.8 19.3 0.00 0.00 0.00 79 999.6
20260507040511 24 358 4.8 17.7 0.00 0.00 0.00 78 999.7
20260507040012 25 351 8.0 17.7 0.00 0.00 0.00 78 999.8
20260507035507 25 3 8.0 16.1 0.00 0.00 0.00 78 1000.0
20260507035008 24 348 9.7 20.9 0.00 0.00 0.00 79 1000.2
20260507034516 24 3 12.9 22.5 0.00 0.00 0.00 79 1000.2
20260507034009 24 22 8.0 22.5 0.00 0.00 0.00 80 1000.2
20260507033508 24 33 8.0 19.3 0.00 0.00 0.00 81 1000.1
20260507033021 24 4 9.7 19.3 0.00 0.00 0.00 81 999.9
20260507032509 23 25 4.8 14.5 0.00 0.00 0.00 82 999.9
20260507032010 23 337 4.8 12.9 0.00 0.00 0.00 82 1000.0
20260507031526 23 296 3.2 16.1 0.00 0.00 0.00 83 999.8
20260507031011 23 334 6.4 17.7 0.00 0.00 0.00 83 999.9
20260507030515 23 12 4.8 20.9 0.00 0.00 0.00 83 1000.1
20260507030028 23 351 6.4 20.9 0.00 0.00 0.00 84 1000.0
20260507025508 23 7 8.0 17.7 0.00 0.00 0.00 84 1000.0
20260507025007 23 5 4.8 14.5 0.00 0.00 0.00 84 1000.0
20260507024516 23 9 3.2 14.5 0.00 0.00 0.00 84 1000.0
20260507024007 23 351 8.0 19.3 0.00 0.00 0.00 84 1000.1
20260507023510 23 360 8.0 19.3 0.00 0.00 0.00 84 1000.2
20260507023020 23 355 8.0 19.3 0.00 0.00 0.00 84 1000.2
20260507022510 23 346 6.4 19.3 0.00 0.00 0.00 84 1000.2
20260507022010 23 360 6.4 22.5 0.00 0.00 0.00 84 1000.2
20260507021525 23 333 11.3 22.5 0.00 0.00 0.00 84 1000.3
20260507021013 23 315 11.3 25.7 0.00 0.00 0.00 84 1000.1
20260507020507 23 27 12.9 27.4 0.00 0.00 0.00 83 1000.2
20260507020031 23 316 9.7 27.4 0.00 0.00 0.00 83 1000.2
20260507015508 24 347 9.7 30.6 0.00 0.00 0.00 83 1000.2
20260507015012 24 27 16.1 27.4 0.00 0.00 0.00 82 1000.3
20260507014528 24 18 11.3 37.0 0.00 0.00 0.00 82 1000.2
20260507014005 24 2 11.3 37.0 0.00 0.00 0.00 82 1000.2
20260507013508 24 344 11.3 40.2 0.00 0.00 0.00 82 1000.5
20260507013016 24 298 12.9 40.2 0.00 0.00 0.00 83 1000.3
20260507012514 23 287 16.1 35.4 0.00 0.00 0.00 84 1000.2
20260507012010 23 10 14.5 37.0 0.00 0.00 0.00 85 999.9
20260507011529 23 16 16.1 37.0 0.00 0.00 0.00 85 1000.0
20260507011015 23 6 16.1 29.0 0.00 0.00 0.00 85 1000.0
20260507010511 23 6 14.5 29.0 0.00 0.00 0.00 85 1000.2
20260507010024 23 45 16.1 27.4 0.00 0.00 0.00 86 1000.7
20260507005513 23 7 14.5 27.4 0.00 0.00 0.00 86 1000.9
20260507005009 23 17 12.9 25.7 0.00 0.00 0.00 86 1001.2
20260507004527 23 334 12.9 25.7 0.00 0.00 0.00 86 1001.3
20260507004008 23 49 12.9 25.7 0.00 0.00 0.00 86 1001.5
20260507003512 23 297 14.5 27.4 0.00 0.00 0.00 87 1001.3
20260507003028 23 360 11.3 30.6 0.00 0.00 0.00 87 1001.2
20260507002508 23 22 12.9 30.6 0.00 0.00 0.00 87 1001.1
20260507002009 23 36 11.3 20.9 0.00 0.00 0.00 87 1001.3
20260507001521 23 35 9.7 30.6 0.00 0.00 0.00 87 1001.6
20260507001007 23 310 12.9 30.6 0.00 0.00 0.00 87 1001.8
20260507000510 23 344 12.9 25.7 0.00 0.00 0.00 86 1002.2
20260507000027 23 360 11.3 19.3 0.00 0.00 0.00 86 1002.5
20260506235510 23 16 9.7 19.3 0.00 0.00 0.00 86 1002.9
20260506235008 23 20 8.0 20.9 0.00 0.00 0.00 86 1003.2
20260506234528 23 16 9.7 24.1 0.00 0.00 0.00 86 1003.5
20260506234009 23 32 9.7 24.1 0.00 0.00 0.00 86 1003.8
20260506233509 23 35 8.0 22.5 0.00 0.00 0.00 85 1003.9
20260506233028 23 20 9.7 22.5 0.00 0.00 0.00 85 1004.1
20260506232509 23 1 9.7 19.3 0.00 0.00 0.00 85 1004.2
20260506232010 23 20 6.4 17.7 0.00 0.00 0.00 85 1004.3
20260506231518 23 306 6.4 19.3 0.00 0.00 0.00 85 1004.5
20260506231008 23 17 8.0 19.3 0.00 0.00 0.00 84 1004.6
20260506230508 23 45 6.4 17.7 0.00 0.00 0.00 84 1004.7
20260506230020 23 280 6.4 14.5 0.00 0.00 0.00 84 1004.8
20260506225509 23 14 6.4 19.3 0.00 0.00 0.00 84 1005.1
20260506225010 23 18 3.2 19.3 0.00 0.00 0.00 84 1005.2
20260506224525 23 343 8.0 14.5 0.00 0.00 0.00 84 1005.2
20260506224008 23 72 3.2 14.5 0.00 0.00 0.00 84 1005.3
20260506223508 23 14 4.8 14.5 0.00 0.00 0.00 83 1005.3
20260506223012 23 2 4.8 14.5 0.00 0.00 0.00 83 1005.3
20260506222506 23 9 4.8 14.5 0.00 0.00 0.00 83 1005.4
20260506222009 23 42 6.4 14.5 0.00 0.00 0.00 83 1005.5
20260506221515 23 355 3.2 17.7 0.00 0.00 0.00 83 1005.5
20260506221008 23 3 6.4 17.7 0.00 0.00 0.00 82 1005.4
20260506220509 23 107 8.0 17.7 0.00 0.00 0.00 82 1005.4
20260506220030 23 18 6.4 16.1 0.00 0.00 0.00 82 1005.4
20260506215508 23 20 6.4 14.5 0.00 0.00 0.00 82 1005.5
20260506215003 23 339 4.8 12.9 0.00 0.00 0.00 82 1005.4
20260506214503 23 304 3.2 12.9 0.00 0.00 0.00 82 1005.3
20260506214004 23 35 4.8 12.9 0.00 0.00 0.00 81 1005.3
20260506213503 24 39 3.2 12.9 0.00 0.00 0.00 81 1005.4
20260506213015 24 17 4.8 14.5 0.00 0.00 0.00 81 1005.4
20260506212507 24 32 4.8 17.7 0.00 0.00 0.00 81 1005.4
20260506212006 24 345 6.4 17.7 0.00 0.00 0.00 80 1005.3
20260506211513 24 30 3.2 11.3 0.00 0.00 0.00 80 1005.3
20260506211006 24 41 4.8 11.3 0.00 0.00 0.00 80 1005.3
20260506210506 24 25 3.2 16.1 0.00 0.00 0.00 80 1005.3
20260506210020 24 326 4.8 16.1 0.00 0.00 0.00 79 1005.4
20260506205509 24 11 6.4 16.1 0.00 0.00 0.00 79 1005.3
20260506205009 25 60 6.4 12.9 0.00 0.00 0.00 79 1005.3
20260506204526 25 358 4.8 12.9 0.00 0.00 0.00 78 1005.2
20260506204011 25 343 4.8 12.9 0.00 0.00 0.00 78 1005.3
20260506203503 25 56 3.2 16.1 0.00 0.00 0.00 77 1005.4